| time (UTC) | temp F | wind direction | speed MPH | gust MPH | rain 1hr in | rain 24hr in | rain mn in | humidity % | barometer mb |
| 20260904133008 | 58 | 297 | 0.0 | 12.0 | 0.25 | 0.46 | 0.43 | 93 | 998.4 |
| 20260904132006 | 58 | 301 | 1.0 | 20.0 | 0.25 | 0.46 | 0.43 | 93 | 998.4 |
| 20260904131006 | 60 | 336 | 14.0 | 20.0 | 0.22 | 0.42 | 0.39 | 93 | 998.1 |
| 20260904130008 | 61 | 184 | 2.0 | 10.0 | 0.17 | 0.37 | 0.34 | 93 | 998.0 |
| 20260904125005 | 61 | 185 | 2.0 | 5.0 | 0.12 | 0.29 | 0.26 | 93 | 998.2 |
| 20260904124006 | 61 | 176 | 2.0 | 7.0 | 0.07 | 0.24 | 0.20 | 93 | 998.2 |
| 20260904123008 | 61 | 145 | 1.0 | 3.0 | 0.06 | 0.21 | 0.18 | 93 | 998.2 |
| 20260904122006 | 61 | 162 | 1.0 | 3.0 | 0.06 | 0.20 | 0.17 | 93 | 998.3 |
| 20260904121006 | 61 | 200 | 1.0 | 5.0 | 0.06 | 0.20 | 0.17 | 93 | 998.8 |
| 20260904120008 | 60 | 185 | 1.0 | 5.0 | 0.07 | 0.20 | 0.17 | 93 | 998.8 |
| 20260904115006 | 61 | 203 | 1.0 | 3.0 | 0.06 | 0.18 | 0.14 | 93 | 999.0 |
| 20260904114005 | 61 | 176 | 0.0 | 5.0 | 0.05 | 0.18 | 0.13 | 93 | 999.3 |
| 20260904113008 | 61 | 205 | 1.0 | 3.0 | 0.04 | 0.17 | 0.12 | 93 | 999.3 |
| 20260904112006 | 61 | 208 | 1.0 | 6.0 | 0.04 | 0.16 | 0.11 | 93 | 999.3 |
| 20260904111006 | 61 | 168 | 1.0 | 5.0 | 0.03 | 0.15 | 0.10 | 93 | 999.3 |
| 20260904110008 | 61 | 193 | 1.0 | 6.0 | 0.03 | 0.14 | 0.09 | 93 | 999.3 |
| 20260904105006 | 61 | 203 | 1.0 | 7.0 | 0.02 | 0.13 | 0.09 | 93 | 999.5 |
| 20260904104006 | 61 | 219 | 0.0 | 6.0 | 0.02 | 0.13 | 0.09 | 93 | 999.6 |
| 20260904103008 | 61 | 215 | 0.0 | 7.0 | 0.02 | 0.13 | 0.08 | 93 | 999.8 |
| 20260904102006 | 61 | 185 | 0.0 | 7.0 | 0.02 | 0.12 | 0.07 | 93 | 999.8 |
| 20260904101006 | 61 | 170 | 1.0 | 6.0 | 0.02 | 0.12 | 0.07 | 93 | 1000.0 |
| 20260904100009 | 61 | 167 | 2.0 | 6.0 | 0.02 | 0.11 | 0.06 | 93 | 1000.1 |
| 20260904095006 | 60 | 160 | 0.0 | 7.0 | 0.02 | 0.12 | 0.06 | 93 | 1000.3 |
| 20260904094006 | 60 | 188 | 0.0 | 12.0 | 0.02 | 0.12 | 0.06 | 92 | 1000.4 |
| 20260904093008 | 60 | 166 | 1.0 | 6.0 | 0.02 | 0.11 | 0.06 | 92 | 1000.6 |
| 20260904092006 | 60 | 160 | 1.0 | 7.0 | 0.01 | 0.10 | 0.05 | 92 | 1000.9 |
| 20260904091006 | 60 | 176 | 1.0 | 3.0 | 0.02 | 0.11 | 0.05 | 92 | 1000.9 |
| 20260904090008 | 60 | 169 | 0.0 | 6.0 | 0.02 | 0.12 | 0.05 | 92 | 1001.1 |
| 20260904085006 | 60 | 168 | 0.0 | 3.0 | 0.02 | 0.13 | 0.05 | 92 | 1001.4 |
| 20260904084006 | 60 | 193 | 1.0 | 5.0 | 0.01 | 0.12 | 0.04 | 91 | 1001.5 |
| 20260904083008 | 60 | 170 | 0.0 | 6.0 | 0.01 | 0.13 | 0.04 | 91 | 1001.6 |
| 20260904082006 | 60 | 167 | 0.0 | 9.0 | 0.01 | 0.13 | 0.04 | 91 | 1001.6 |
| 20260904081006 | 59 | 169 | 0.0 | 6.0 | 0.00 | 0.13 | 0.03 | 90 | 1001.9 |
| 20260904080008 | 59 | 174 | 0.0 | 7.0 | 0.00 | 0.14 | 0.03 | 90 | 1001.9 |
| 20260904075006 | 59 | 170 | 1.0 | 12.0 | 0.00 | 0.14 | 0.03 | 91 | 1001.9 |
| 20260904074006 | 59 | 170 | 0.0 | 6.0 | 0.00 | 0.14 | 0.03 | 91 | 1002.0 |
| 20260904073008 | 59 | 170 | 1.0 | 6.0 | 0.00 | 0.14 | 0.03 | 91 | 1001.9 |
| 20260904072006 | 59 | 170 | 0.0 | 0.0 | 0.00 | 0.15 | 0.03 | 91 | 1002.0 |
| 20260904071006 | 59 | 163 | 0.0 | 2.0 | 0.00 | 0.15 | 0.03 | 91 | 1002.3 |
| 20260904070008 | 59 | 190 | 0.0 | 3.0 | 0.00 | 0.15 | 0.03 | 91 | 1002.4 |
| 20260904065006 | 59 | 163 | 0.0 | 3.0 | 0.00 | 0.16 | 0.03 | 91 | 1002.5 |
| 20260904064006 | 59 | 198 | 0.0 | 2.0 | 0.00 | 0.16 | 0.03 | 91 | 1002.7 |
| 20260904063008 | 59 | 209 | 0.0 | 0.0 | 0.00 | 0.16 | 0.03 | 91 | 1002.9 |
| 20260904062006 | 59 | 192 | 0.0 | 1.0 | 0.00 | 0.16 | 0.03 | 91 | 1003.0 |
| 20260904061005 | 59 | 199 | 0.0 | 0.0 | 0.00 | 0.16 | 0.03 | 91 | 1003.0 |
| 20260904060008 | 59 | 217 | 0.0 | 0.0 | 0.00 | 0.16 | 0.03 | 90 | 1003.1 |
| 20260904055006 | 59 | 231 | 0.0 | 7.0 | 0.00 | 0.17 | 0.03 | 90 | 1003.3 |
| 20260904054006 | 59 | 198 | 0.0 | 6.0 | 0.00 | 0.17 | 0.03 | 90 | 1003.6 |
| 20260904053008 | 59 | 248 | 0.0 | 5.0 | 0.00 | 0.17 | 0.03 | 90 | 1003.7 |
| 20260904052005 | 59 | 219 | 0.0 | 0.0 | 0.00 | 0.17 | 0.03 | 90 | 1003.9 |
| 20260904051005 | 59 | 209 | 0.0 | 1.0 | 0.00 | 0.17 | 0.03 | 90 | 1003.8 |
| 20260904050008 | 59 | 203 | 0.0 | 5.0 | 0.00 | 0.17 | 0.03 | 90 | 1004.0 |
| 20260904045006 | 59 | 236 | 0.0 | 5.0 | 0.00 | 0.17 | 0.03 | 90 | 1004.0 |
| 20260904044005 | 59 | 227 | 1.0 | 5.0 | 0.00 | 0.17 | 0.03 | 90 | 1004.0 |
| 20260904043008 | 59 | 226 | 0.0 | 3.0 | 0.00 | 0.17 | 0.03 | 90 | 1004.0 |
| 20260904042007 | 59 | 218 | 0.0 | 12.0 | 0.00 | 0.17 | 0.03 | 89 | 1004.0 |
| 20260904041006 | 59 | 227 | 0.0 | 6.0 | 0.00 | 0.17 | 0.03 | 89 | 1003.8 |
| 20260904040011 | 59 | 239 | 0.0 | 6.0 | 0.00 | 0.17 | 0.03 | 89 | 1004.0 |
| 20260904035007 | 59 | 230 | 0.0 | 12.0 | 0.00 | 0.17 | 0.03 | 90 | 1004.1 |
| 20260904034007 | 59 | 253 | 0.0 | 14.0 | 0.00 | 0.17 | 0.03 | 90 | 1004.4 |
| 20260904033010 | 59 | 226 | 1.0 | 9.0 | 0.00 | 0.17 | 0.03 | 90 | 1004.3 |
| 20260904032007 | 59 | 224 | 1.0 | 7.0 | 0.00 | 0.17 | 0.03 | 90 | 1004.6 |
| 20260904031007 | 59 | 263 | 1.0 | 10.0 | 0.00 | 0.17 | 0.03 | 91 | 1004.6 |
| 20260904030008 | 59 | 235 | 2.0 | 13.0 | 0.00 | 0.17 | 0.03 | 91 | 1004.6 |
| 20260904025006 | 59 | 242 | 2.0 | 12.0 | 0.00 | 0.17 | 0.03 | 91 | 1004.6 |
| 20260904024005 | 59 | 228 | 2.0 | 9.0 | 0.00 | 0.17 | 0.03 | 91 | 1004.5 |
| 20260904023009 | 59 | 240 | 2.0 | 9.0 | 0.00 | 0.17 | 0.03 | 92 | 1004.9 |
| 20260904022006 | 59 | 243 | 2.0 | 12.0 | 0.00 | 0.17 | 0.03 | 92 | 1004.7 |
| 20260904021006 | 59 | 218 | 2.0 | 10.0 | 0.00 | 0.17 | 0.03 | 92 | 1004.8 |
| 20260904020009 | 59 | 249 | 0.0 | 12.0 | 0.00 | 0.17 | 0.03 | 92 | 1005.1 |
| 20260904015006 | 59 | 228 | 2.0 | 12.0 | 0.00 | 0.17 | 0.03 | 92 | 1005.1 |
| 20260904014008 | 59 | 240 | 1.0 | 12.0 | 0.00 | 0.18 | 0.03 | 93 | 1005.1 |
| 20260904013009 | 59 | 243 | 2.0 | 12.0 | 0.00 | 0.18 | 0.03 | 93 | 1005.1 |
| 20260904012006 | 59 | 240 | 1.0 | 12.0 | 0.00 | 0.18 | 0.03 | 93 | 1005.1 |
| 20260904011006 | 59 | 227 | 1.0 | 12.0 | 0.01 | 0.20 | 0.03 | 93 | 1005.1 |
| 20260904010008 | 59 | 225 | 0.0 | 1.0 | 0.01 | 0.20 | 0.03 | 93 | 1005.2 |
| 20260904005006 | 59 | 224 | 0.0 | 2.0 | 0.01 | 0.20 | 0.03 | 93 | 1005.2 |
| 20260904004006 | 59 | 244 | 0.0 | 3.0 | 0.01 | 0.20 | 0.03 | 93 | 1005.5 |
| 20260904003008 | 59 | 278 | 0.0 | 6.0 | 0.02 | 0.20 | 0.03 | 92 | 1005.6 |
| 20260904002006 | 59 | 274 | 1.0 | 12.0 | 0.03 | 0.20 | 0.03 | 92 | 1005.6 |
| 20260904001005 | 59 | 255 | 0.0 | 3.0 | 0.02 | 0.19 | 0.02 | 92 | 1005.6 |
| 20260904000009 | 59 | 267 | 0.0 | 6.0 | 0.02 | 0.19 | 0.02 | 91 | 1005.6 |
| 20260903235006 | 59 | 247 | 0.0 | 9.0 | 0.02 | 0.19 | 0.02 | 91 | 1005.6 |
| 20260903234006 | 60 | 237 | 0.0 | 5.0 | 0.02 | 0.19 | 0.02 | 91 | 1005.6 |
| 20260903233008 | 61 | 260 | 0.0 | 6.0 | 0.02 | 0.18 | 0.02 | 90 | 1005.8 |
| 20260903232005 | 61 | 239 | 1.0 | 12.0 | 0.00 | 0.17 | 0.00 | 90 | 1005.6 |
| 20260903231006 | 61 | 237 | 1.0 | 16.0 | 0.00 | 0.17 | 0.00 | 90 | 1005.5 |
| 20260903230008 | 62 | 240 | 1.0 | 7.0 | 0.00 | 0.17 | 0.00 | 90 | 1005.5 |
| 20260903225006 | 61 | 242 | 0.0 | 2.0 | 0.00 | 0.17 | 0.00 | 90 | 1005.6 |
| 20260903224006 | 61 | 229 | 1.0 | 9.0 | 0.00 | 0.17 | 0.00 | 90 | 1005.7 |
| 20260903223008 | 61 | 238 | 0.0 | 7.0 | 0.00 | 0.17 | 0.00 | 89 | 1005.7 |
| 20260903222006 | 61 | 297 | 0.0 | 7.0 | 0.00 | 0.17 | 0.00 | 89 | 1005.7 |
| 20260903221006 | 61 | 228 | 1.0 | 10.0 | 0.00 | 0.17 | 0.00 | 89 | 1005.8 |
| 20260903220008 | 61 | 241 | 0.0 | 10.0 | 0.00 | 0.17 | 0.00 | 89 | 1005.7 |
| 20260903215005 | 61 | 238 | 1.0 | 7.0 | 0.00 | 0.17 | 0.17 | 89 | 1005.6 |
| 20260903214006 | 61 | 229 | 0.0 | 5.0 | 0.00 | 0.17 | 0.17 | 89 | 1005.6 |
| 20260903213008 | 62 | 259 | 0.0 | 13.0 | 0.00 | 0.17 | 0.17 | 89 | 1005.6 |
| 20260903212006 | 62 | 251 | 1.0 | 7.0 | 0.00 | 0.17 | 0.17 | 90 | 1005.7 |
| 20260903211006 | 62 | 234 | 0.0 | 7.0 | 0.00 | 0.17 | 0.17 | 90 | 1005.7 |
| 20260903210009 | 62 | 227 | 1.0 | 12.0 | 0.00 | 0.17 | 0.17 | 90 | 1005.7 |
| 20260903205005 | 62 | 244 | 1.0 | 12.0 | 0.00 | 0.17 | 0.17 | 90 | 1005.7 |
| 20260903204006 | 62 | 228 | 0.0 | 5.0 | 0.00 | 0.17 | 0.17 | 89 | 1005.8 |
| 20260903203008 | 62 | 244 | 1.0 | 9.0 | 0.00 | 0.17 | 0.17 | 89 | 1005.9 |
| 20260903202006 | 62 | 235 | 1.0 | 12.0 | 0.00 | 0.17 | 0.17 | 89 | 1005.7 |
| 20260903201005 | 62 | 239 | 1.0 | 9.0 | 0.00 | 0.17 | 0.17 | 89 | 1005.7 |
| 20260903200008 | 63 | 241 | 1.0 | 7.0 | 0.00 | 0.17 | 0.17 | 89 | 1005.6 |
| 20260903195006 | 63 | 243 | 1.0 | 10.0 | 0.00 | 0.17 | 0.17 | 89 | 1005.6 |
| 20260903194005 | 63 | 243 | 0.0 | 9.0 | 0.00 | 0.17 | 0.17 | 89 | 1005.6 |
| 20260903193008 | 63 | 239 | 1.0 | 9.0 | 0.00 | 0.17 | 0.17 | 89 | 1005.6 |
| 20260903192006 | 63 | 256 | 0.0 | 10.0 | 0.00 | 0.17 | 0.17 | 89 | 1005.6 |
| 20260903191006 | 63 | 222 | 1.0 | 9.0 | 0.00 | 0.17 | 0.17 | 89 | 1005.6 |
| 20260903190018 | 64 | 248 | 1.0 | 7.0 | 0.00 | 0.17 | 0.17 | 88 | 1005.4 |
| 20260903185006 | 64 | 227 | 0.0 | 12.0 | 0.00 | 0.17 | 0.17 | 88 | 1005.5 |
| 20260903184005 | 64 | 239 | 1.0 | 9.0 | 0.00 | 0.17 | 0.17 | 89 | 1005.4 |
| 20260903183009 | 64 | 233 | 1.0 | 7.0 | 0.00 | 0.17 | 0.17 | 89 | 1005.2 |
| 20260903182006 | 64 | 233 | 0.0 | 7.0 | 0.00 | 0.17 | 0.17 | 89 | 1005.1 |
| 20260903181006 | 64 | 255 | 1.0 | 9.0 | 0.00 | 0.17 | 0.17 | 89 | 1005.1 |
| 20260903180008 | 64 | 252 | 1.0 | 13.0 | 0.00 | 0.17 | 0.17 | 90 | 1005.1 |
| 20260903175005 | 65 | 231 | 1.0 | 13.0 | 0.00 | 0.17 | 0.17 | 90 | 1004.8 |
| 20260903174005 | 65 | 242 | 2.0 | 20.0 | 0.00 | 0.17 | 0.17 | 90 | 1004.7 |
| 20260903173010 | 65 | 228 | 2.0 | 15.0 | 0.00 | 0.17 | 0.17 | 91 | 1004.8 |
| 20260903172005 | 65 | 227 | 1.0 | 14.0 | 0.00 | 0.17 | 0.17 | 91 | 1004.6 |
| 20260903171005 | 65 | 221 | 1.0 | 16.0 | 0.00 | 0.17 | 0.17 | 91 | 1004.6 |
| 20260903170008 | 65 | 236 | 2.0 | 15.0 | 0.00 | 0.17 | 0.17 | 91 | 1004.5 |
| 20260903165006 | 65 | 231 | 2.0 | 13.0 | 0.00 | 0.17 | 0.17 | 92 | 1004.5 |
| 20260903164005 | 65 | 232 | 1.0 | 10.0 | 0.00 | 0.17 | 0.17 | 92 | 1004.5 |
| 20260903163007 | 65 | 230 | 2.0 | 14.0 | 0.00 | 0.17 | 0.17 | 92 | 1004.5 |
| 20260903162006 | 66 | 232 | 2.0 | 15.0 | 0.00 | 0.17 | 0.17 | 92 | 1004.5 |
| 20260903161005 | 66 | 221 | 4.0 | 16.0 | 0.00 | 0.17 | 0.17 | 93 | 1004.5 |
| 20260903160007 | 66 | 233 | 5.0 | 14.0 | 0.00 | 0.17 | 0.17 | 93 | 1004.6 |
| 20260903155005 | 66 | 233 | 5.0 | 16.0 | 0.00 | 0.17 | 0.17 | 93 | 1004.6 |
| 20260903154006 | 67 | 244 | 2.0 | 12.0 | 0.01 | 0.17 | 0.17 | 93 | 1004.7 |
| 20260903153008 | 66 | 228 | 6.0 | 16.0 | 0.01 | 0.17 | 0.17 | 93 | 1004.7 |
| 20260903152006 | 66 | 207 | 1.0 | 12.0 | 0.01 | 0.17 | 0.17 | 94 | 1004.7 |
| 20260903151006 | 66 | 207 | 1.0 | 12.0 | 0.03 | 0.17 | 0.17 | 94 | 1004.6 |
| 20260903150008 | 66 | 200 | 3.0 | 10.0 | 0.03 | 0.17 | 0.17 | 94 | 1004.6 |
| 20260903145005 | 66 | 199 | 3.0 | 12.0 | 0.03 | 0.17 | 0.17 | 94 | 1004.6 |
| 20260903144006 | 65 | 220 | 2.0 | 12.0 | 0.02 | 0.17 | 0.16 | 94 | 1004.6 |
| 20260903143007 | 64 | 174 | 3.0 | 10.0 | 0.02 | 0.17 | 0.16 | 94 | 1004.7 |
| 20260903142006 | 64 | 194 | 3.0 | 9.0 | 0.02 | 0.17 | 0.16 | 94 | 1005.1 |
| 20260903141005 | 64 | 173 | 2.0 | 6.0 | 0.00 | 0.15 | 0.13 | 94 | 1005.1 |
| 20260903140007 | 64 | 165 | 3.0 | 9.0 | 0.00 | 0.15 | 0.13 | 94 | 1005.2 |
| 20260903135005 | 64 | 176 | 4.0 | 12.0 | 0.00 | 0.16 | 0.13 | 94 | 1005.3 |
| 20260903134005 | 64 | 175 | 2.0 | 12.0 | 0.00 | 0.16 | 0.13 | 94 | 1005.2 |